Location: Burgwalden
(48.2830°N, 10.7576°E)
Time: 21:56:48
(UTC+00:00)

Cosmos 1500 Rocket - Pass Details

Date: 26 September 2023
Orbit: 601 x 628 km, 82.5° (Epoch: 08 December)

Event Time Altitude Azimuth Distance (km) Brightness Sun altitude
Rises 03:42:54 0° 350° (N) 2,914 7.1 -14.9°
Reaches altitude 10° 03:45:09 10° 351° (N) 1,999 6.2 -14.6°
Maximum altitude 03:49:35 85° 79° (E) 625 3.6 -13.8°
Drops below altitude 10° 03:53:57 10° 170° (S) 1,965 6.1 -13.1°
Sets 03:56:09 0° 171° (S) 2,860 6.9 -12.8°
